User: anonymous   Login
Location: *
(53.9002°N, 27.5624°E)
Time: 14:43:54
(UTC+00:00)
Language:

Ariane Rocket - Orbit

View from above orbital plane
View from above orbital plane
View from above satellite
View from above satellite

Ground track
Ground track

The orbit data is extracted from the following two-line orbital elements,

1 23561U 95021B   20021.10291907  .00000015  00000-0  20121-4 0  9994
2 23561  98.7445  57.8653 0006430 342.1077  77.8139 14.37952339297477
Epoch (UTC): 21 January 2020 02:28:12
Eccentricity: 0.0006430
inclination: 98.7445°
perigee height: 760 km
apogee height: 770 km
right ascension of ascending node: 57.8653°
argument of perigee: 342.1077°
revolutions per day: 14.37952339
mean anomaly at epoch: 77.8139°
orbit number at epoch: 29747

The dashed part of the orbit path shows where the satellite is in the earth's shadow,  

DLR